Printer-friendly version
Follow the MPC on Twitter Follow the MPC on Facebook The MPC blog
Minor Planet Center

MPEC 2005-V73 : 2005 VN5

The following Minor Planet Electronic Circular may be linked-to from your own Web pages, but must not otherwise be redistributed electronically.

A form allowing access to any MPEC is at the bottom of this page.


Read MPEC 2005-V72 Read MPEC 2005-V74


M.P.E.C. 2005-V73                                Issued 2005 Nov. 11, 14:50 UT

     The Minor Planet Electronic Circulars contain information on unusual
         minor planets and routine data on comets.  They are published
   on behalf of Commission 20 of the International Astronomical Union by the
          Minor Planet Center, Smithsonian Astrophysical Observatory,
                          Cambridge, MA 02138, U.S.A.

                  Supported in part by the Brinson Foundation
                  Supported in part by the TABASGO Foundation
             Prepared using the Tamkin Foundation Computer Network

                              MPC@CFA.HARVARD.EDU
          URL http://cfa-www.harvard.edu/iau/mpc.html  ISSN 1523-6714

                                   2005 VN5

Observations:
     K05V05N* C2005 11 10.29074 02 39 54.03 +07 34 35.7          16.9 V EV073703
     K05V05N  C2005 11 10.29718 02 39 32.40 +07 33 33.1          16.7 V EV073703
     K05V05N  C2005 11 10.30363 02 39 10.54 +07 32 29.6          16.7 V EV073703
     K05V05N  C2005 11 10.31007 02 38 48.73 +07 31 25.8          16.7 V EV073703
     K05V05N  C2005 11 10.33700 02 37 16.21 +07 26 50.8          16.7 V EV073703
     K05V05N  C2005 11 10.33742 02 37 14.77 +07 26 46.7          16.7 V EV073703
     K05V05N  C2005 11 10.33782 02 37 13.36 +07 26 43.3          16.7 V EV073703
     K05V05N  C2005 11 10.33823 02 37 11.98 +07 26 38.0          16.6 V EV073703
     K05V05N  C2005 11 10.39321 02 33 58.86 +07 16 42.3          17.0 V EV073703
     K05V05N  C2005 11 10.39361 02 33 57.38 +07 16 37.9          17.1 V EV073703
     K05V05N  C2005 11 10.39403 02 33 55.94 +07 16 32.9          17.0 V EV073703
     K05V05N  C2005 11 10.39443 02 33 54.50 +07 16 28.6          17.1 V EV073703
     K05V05N  C2005 11 10.91753 01 58 31.78 +05 06 20.0                 EV073595
     K05V05N  C2005 11 10.91927 01 58 21.75 +05 05 46.3          17.0 V EV073595
     K05V05N  C2005 11 10.92101 01 58 11.65 +05 05 12.4                 EV073595
     K05V05N  C2005 11 10.92274 01 58 01.64 +05 04 38.9                 EV073595
     K05V05N  C2005 11 11.14030 01 36 47.43 +03 48 25.9          16.7 R EV073850
     K05V05N  C2005 11 11.14526 01 36 11.14 +03 46 22.0          16.0 R EV073850
     K05V05N  C2005 11 11.14773 01 35 52.94 +03 45 19.4          16.5 R EV073850
     K05V05N  C2005 11 11.15269 01 35 16.39 +03 43 13.5          16.8 R EV073850
     K05V05N  C2005 11 11.15516 01 34 58.02 +03 42 10.6          16.6 R EV073850
     K05V05N  C2005 11 11.15764 01 34 39.59 +03 41 07.2          16.3 R EV073850
     K05V05N  C2005 11 11.16222 01 34 05.50 +03 39 09.1          16.4 R EV073850
     K05V05N  C2005 11 11.16470 01 33 46.91 +03 38 05.4          16.7 R EV073850
     K05V05N  C2005 11 11.16717 01 33 28.35 +03 37 01.1          16.7 R EV073850
     K05V05N  C2005 11 11.16965 01 33 09.71 +03 35 56.7          16.7 R EV073850
     K05V05N  C2005 11 11.17212 01 32 51.00 +03 34 52.3          16.5 R EV073850
     K05V05N  C2005 11 11.18519 01 31 28.43 +03 27 34.0          16.7 R EV073734
     K05V05N  C2005 11 11.18658 01 31 17.84 +03 26 57.3          16.5 R EV073734
     K05V05N  C2005 11 11.18727 01 31 12.56 +03 26 38.8          16.4 R EV073734
     K05V05N  C2005 11 11.18797 01 31 07.22 +03 26 20.3          16.6 R EV073734
     K05V05N  C2005 11 11.18867 01 31 01.87 +03 26 01.8          16.6 R EV073734
     K05V05N  C2005 11 11.18967 01 30 52.17 +03 25 41.5          16.2 R EV073649
     K05V05N  C2005 11 11.19014 01 30 48.61 +03 25 28.7          16.5 R EV073649
     K05V05N  C2005 11 11.19060 01 30 45.04 +03 25 16.6          16.3 R EV073649
     K05V05N  C2005 11 11.19107 01 30 41.51 +03 25 04.0          16.2 R EV073649
     K05V05N  C2005 11 11.19153 01 30 37.92 +03 24 51.5          16.5 R EV073649
     K05V05N  C2005 11 11.19199 01 30 34.36 +03 24 39.4          16.3 R EV073649
     K05V05N  C2005 11 11.19246 01 30 30.79 +03 24 26.7          16.5 R EV073649
     K05V05N  C2005 11 11.19292 01 30 27.19 +03 24 14.0          16.3 R EV073649
     K05V05N  C2005 11 11.19339 01 30 23.65 +03 24 01.4          16.4 R EV073649
     K05V05N  C2005 11 11.19385 01 30 20.06 +03 23 49.2          16.4 R EV073649
     K05V05N  C2005 11 11.28432 01 18 25.26 +02 43 30.5          15.9 R EV073H06
     K05V05N  C2005 11 11.28584 01 18 12.47 +02 42 44.3          16.1 R EV073H06
     K05V05N  C2005 11 11.28733 01 17 59.82 +02 42 00.1          16.0 R EV073H06
     K05V05N  C2005 11 11.32090 01 13 18.72 +02 25 03.9          16.2 R EV073854
     K05V05N  C2005 11 11.32102 01 13 17.72 +02 24 59.5          16.0 R EV073854
     K05V05N  C2005 11 11.32151 01 13 13.42 +02 24 44.6          16.1 R EV073854
     K05V05N  C2005 11 11.32248 01 13 04.95 +02 24 13.2          16.2 R EV073854
     K05V05N  C2005 11 11.32380 01 12 53.45 +02 23 33.2          16.5 R EV073854

Observer details:
595 Farra d'Isonzo.  Observers M. Spolaor, G. Lombardi, E. Pettarin, F. Piani.
    0.40-m f/4.5 reflector + CCD.
649 Powell Observatory, Louisburg.  Observers R. Fredrick, R. Trentman.
    0.75-m Newtonian reflector + CCD.
703 Catalina Sky Survey.  Observer R. Hill.  Measurers E. C. Beshore,
    E. J. Christensen, G. J. Garradd, A. D. Grauer, R. E. Hill, R. A. Kowalski,
    S. M. Larson, R. H. McNaught.  0.68-m Schmidt + CCD.
734 Farpoint Observatory.  Observer D. Tibbets.  0.7-m reflector + CCD.
850 Cordell-Lorenz Observatory, Sewanee.  Observer D. T. Durig.  0.30-m f/6.3
    Schmidt-Cassegrain + 3Kx2K CCD.
854 Sabino Canyon Observatory, Tucson.  Observer J. E. McGaha.  0.36-m f/10.0
    Schmidt-Cassegrain + CCD.
H06 New Mexico Skies Observatory.  Observer R. Hutsebaut.  0.25-m reflector
    + CCD.

Orbital elements:
2005 VN5
Epoch 2005 Aug. 18.0 TT = JDT 2453600.5                 MPC
M 173.06877              (2000.0)            P               Q
n   1.09566093     Peri.  118.45586     -0.97743439     -0.20935708
a   0.9318627      Node    49.47401     +0.17854949     -0.88998840
e   0.2363109      Incl.    2.12130     +0.11288083     -0.40508055
P   0.90           H   27.0           G   0.15           U   6
Residuals in seconds of arc
051110 703  0.0   0.0     051111 850  0.1-  0.0     051111 649  0.5+  0.3+
051110 703  0.4+  0.1+    051111 850  0.9-  0.3-    051111 649  1.7+  0.3+
051110 703  0.5-  0.1+    051111 850  0.2-  0.4-    051111 649  0.7+  0.1+
051110 703  0.4+  0.3+    051111 850  1.3-  0.3-    051111 649  0.3+  0.3+
051110 703  0.2-  0.2-    051111 850  1.4-  0.2-    051111 649  1.0+  0.2+
051110 703  0.0   0.0     051111 850  0.4-  0.6-    051111 649  0.0   0.1-
051110 703  0.4-  0.8+    051111 850  0.7-  0.2-    051111 649  1.1+  0.1-
051110 703  0.2+  0.2-    051111 850  1.0-  0.5-    051111 649  0.4+  0.1+
051110 703  0.1+  0.2-    051111 850  0.7-  0.3-    051111 H06  0.6-  1.3+
051110 703  0.8-  0.1-    051111 850  1.7-  0.3-    051111 H06  0.3+  0.9+
051110 703  0.0   0.3-    051111 734  0.6-  0.4-    051111 H06  0.4-  1.7+
051110 703  0.3-  0.1-    051111 734  0.4-  0.2-    051111 854 (7.5-  0.6-)
051110 595  1.4+  0.3+    051111 734  0.5-  0.3-    051111 854 (6.8-  1.2-)
051110 595  1.4+  0.4+    051111 734  0.4-  0.1-    051111 854 (7.2-  0.7-)
051110 595  0.7+  0.2+    051111 734  0.3-  0.0     051111 854 (7.3-  1.5-)
051110 595  0.7+  0.4+    051111 649  0.5+  0.3+    051111 854 (6.8-  0.1+)
051111 850  0.0   0.7-    051111 649  1.1+  0.1+

Ephemeris:
2005 VN5                 a,e,i = 0.93, 0.24, 2                   q = 0.7117
Date    TT    R. A. (2000) Decl.     Delta      r     Elong.  Phase     V
2005 11 11.0  01 51.11   +04 56.0    0.00555  0.995   158.1    21.8    16.8
2005 11 11.1  01 41.01   +04 19.5    0.00526  0.995   155.6    24.3    16.7
2005 11 11.2  01 29.77   +03 38.3    0.00498  0.994   152.8    27.1    16.7
2005 11 11.3  01 17.27   +02 51.7    0.00472  0.994   149.6    30.2    16.7
2005 11 11.4  01 03.36   +01 59.2    0.00447  0.994   146.1    33.8    16.6
2005 11 11.5  00 47.91   +01 00.3    0.00424  0.993   142.1    37.7    16.6
2005 11 11.6  00 30.80   -00 05.3    0.00404  0.993   137.7    42.1    16.7
2005 11 11.7  00 11.96   -01 17.3    0.00386  0.993   132.9    47.0    16.7
2005 11 11.8  23 51.42   -02 35.3    0.00371  0.992   127.6    52.3    16.8
2005 11 11.9  23 29.30   -03 57.6    0.00359  0.992   121.9    58.0    16.8
2005 11 12.0  23 05.85   -05 22.2    0.00351  0.991   115.8    64.0    17.0
2005 11 12.1  22 41.46   -06 46.2    0.00347  0.991   109.6    70.2    17.1
2005 11 12.2  22 16.63   -08 06.6    0.00347  0.991   103.3    76.5    17.4
2005 11 12.3  21 51.94   -09 20.4    0.00351  0.990    97.0    82.8    17.6
2005 11 12.4  21 27.92   -10 25.7    0.00359  0.990    91.0    88.8    17.9
2005 11 12.5  21 05.03   -11 21.2    0.00370  0.989    85.2    94.6    18.2
2005 11 12.6  20 43.61   -12 07.0    0.00385  0.989    79.9    99.9    18.5
2005 11 12.7  20 23.84   -12 43.5    0.00403  0.989    75.0   104.8    18.9
2005 11 12.8  20 05.80   -13 12.0    0.00424  0.988    70.5   109.3    19.2
2005 11 12.9  19 49.45   -13 33.6    0.00447  0.988    66.5   113.3    19.6
2005 11 13.0  19 34.72   -13 49.6    0.00471  0.987    62.8   116.9    20.0
2005 11 13.1  19 21.47   -14 01.2    0.00498  0.987    59.5   120.2    20.3
2005 11 13.2  19 09.57   -14 09.2    0.00525  0.987    56.6   123.2    20.7
2005 11 13.3  18 58.87   -14 14.6    0.00554  0.986    53.9   125.8    21.0
2005 11 13.4  18 49.24   -14 17.9    0.00584  0.986    51.5   128.2    21.3
2005 11 13.5  18 40.55   -14 19.7    0.00615  0.985    49.4   130.3    21.7
2005 11 13.6  18 32.70   -14 20.3    0.00646  0.985    47.4   132.3    22.0
2005 11 13.7  18 25.58   -14 19.9    0.00678  0.985    45.6   134.1    22.3
2005 11 13.8  18 19.11   -14 19.0    0.00711  0.984    44.0   135.7    22.5
2005 11 13.9  18 13.21   -14 17.5    0.00744  0.984    42.5   137.2    22.8
2005 11 14.0  18 07.82   -14 15.7    0.00778  0.984    41.1   138.6    23.1

Brian G. Marsden             (C) Copyright 2005 MPC           M.P.E.C. 2005-V73

Read MPEC 2005-V72 Read MPEC 2005-V74


MPEC number:

Enter an MPEC number in one of the following forms:

  • 1997-B01 (the full form)
  • J97B01 (the packed version of the full form)
  • B01 (the abbreviated form)

Valid HTML 4.01!